Branson, MO

10:00 PM CDT on May 25, 2018 (GMT -0500)
Branson

Weather History for KBBG - July, 2013

Change the Weather History Date:

Wednesday, July 31, 2013

  Actual Average (WUND) Record (WUND)
Temperature  
Mean Temperature 78 °F -  
Max Temperature 86 °F - - (-1)
Min Temperature 71 °F - - (-1)
Cooling Degree Days 14    
Growing Degree Days 28 (Base 50)    
Moisture  
Dew Point 72 °F    
Average Humidity 87    
Maximum Humidity 100    
Minimum Humidity 58    
Precipitation  
Precipitation 0.00 in - - ()
Sea Level Pressure  
Sea Level Pressure 30.07 in    
Wind  
Wind Speed 1 mph (NNW)    
Max Wind Speed 10 mph    
Max Gust Speed 18 mph    
Visibility 8 miles    
Events Thunderstorm    
Averages and records for this station are not official NWS values.
T = Trace of Precipitation, MM = Missing Value Source: NWS Daily Summary

Daily Weather History Graph

Daily Weather History Graph

Search for Another Location

Airport or City:

Astronomy

Jul. 31, 2013 Rise Set
Actual Time 6:18 AM CDT 8:19 PM CDT
Civil Twilight 5:49 AM CDT 8:47 PM CDT
Nautical Twilight 5:15 AM CDT 9:22 PM CDT
Astronomical Twilight 4:37 AM CDT 9:59 PM CDT
Moon 1:14 AM CDT (7/31) 3:35 PM CDT (7/31)
Length of Visible Light 14h 58m
Length of Day
14h 00m
Waning Crescent, 31% of the Moon is Illuminated
Jul 31
Waning Crescent
Aug 6
New
Aug 14
First Quarter
Aug 20
Full
Aug 28
Last Quarter

Hourly Weather History & Observations

Time (CDT) Temp. Heat Index Dew Point Humidity Pressure Visibility Wind Dir Wind Speed Gust Speed Precip Events Conditions
12:15 AM 75.2 °F - 73.4 °F 94% 30.07 in 8.0 mi Calm Calm - N/A   Overcast
12:35 AM 75.2 °F - 73.4 °F 94% 30.07 in 7.0 mi Calm Calm - N/A   Mostly Cloudy
12:55 AM 73.4 °F - 73.4 °F 100% 30.07 in 7.0 mi Calm Calm - N/A   Mostly Cloudy
1:35 AM 75.2 °F - 73.4 °F 94% 30.07 in 8.0 mi Calm Calm - N/A   Overcast
1:55 AM 73.4 °F - 73.4 °F 100% 30.06 in 7.0 mi Calm Calm - N/A Thunderstorm Thunderstorm
2:15 AM 73.4 °F - 73.4 °F 100% 30.06 in 7.0 mi Calm Calm - N/A   Overcast
2:35 AM 73.4 °F - 73.4 °F 100% 30.06 in 7.0 mi Calm Calm - N/A   Mostly Cloudy
2:55 AM 73.4 °F - 73.4 °F 100% 30.06 in 6.0 mi Calm Calm - N/A   Mostly Cloudy
3:15 AM 73.4 °F - 73.4 °F 100% 30.06 in 6.0 mi Calm Calm - N/A   Overcast
3:35 AM 73.4 °F - 73.4 °F 100% 30.05 in 4.0 mi Calm Calm - N/A   Overcast
3:55 AM 73.4 °F - 73.4 °F 100% 30.05 in 5.0 mi Calm Calm - N/A   Mostly Cloudy
4:15 AM 73.4 °F - 73.4 °F 100% 30.05 in 3.0 mi Calm Calm - N/A   Overcast
4:35 AM 73.4 °F - 73.4 °F 100% 30.05 in 5.0 mi Calm Calm - N/A   Overcast
4:55 AM 73.4 °F - 73.4 °F 100% 30.05 in 3.0 mi Calm Calm - N/A   Overcast
5:15 AM 73.4 °F - 73.4 °F 100% 30.05 in 3.0 mi Calm Calm - N/A   Mostly Cloudy
5:35 AM 73.4 °F - 73.4 °F 100% 30.06 in 4.0 mi Calm Calm - N/A   Overcast
5:55 AM 73.4 °F - 73.4 °F 100% 30.07 in 5.0 mi Calm Calm - N/A   Overcast
6:15 AM 73.4 °F - 73.4 °F 100% 30.09 in 3.0 mi Calm Calm - N/A   Overcast
6:52 AM 73.4 °F - 73.4 °F 100% 30.09 in 2.5 mi Calm Calm - N/A   Mostly Cloudy
7:45 AM 75.2 °F - 75.2 °F 100% 30.09 in 5.0 mi Calm Calm - N/A   Mostly Cloudy
8:45 AM 77.0 °F - 73.4 °F 89% 30.09 in 9.0 mi Calm Calm - N/A   Mostly Cloudy
9:45 AM 80.6 °F 84.6 °F 71.6 °F 74% 30.09 in 10.0 mi Calm Calm - N/A   Scattered Clouds
10:45 AM 80.6 °F 85.4 °F 73.4 °F 79% 30.09 in 10.0 mi NW 4.6 mph - N/A   Mostly Cloudy
11:49 AM 84.2 °F 89.6 °F 71.6 °F 66% 30.08 in 10.0 mi NW 4.6 mph - N/A   Mostly Cloudy
12:45 PM 82.4 °F 88.2 °F 73.4 °F 74% 30.08 in 10.0 mi NNW 10.4 mph - N/A   Mostly Cloudy
2:46 PM 86.0 °F 91.8 °F 71.6 °F 62% 30.07 in 10.0 mi NNW 10.4 mph 17.3 mph N/A   Mostly Cloudy
3:47 PM 86.0 °F 91.8 °F 71.6 °F 62% 30.06 in 10.0 mi North 10.4 mph - N/A   Mostly Cloudy
4:45 PM 86.0 °F 90.4 °F 69.8 °F 58% 30.05 in 10.0 mi North 9.2 mph 18.4 mph N/A   Mostly Cloudy
5:50 PM 84.2 °F 87.3 °F 68.0 °F 58% 30.03 in 10.0 mi North 8.1 mph 16.1 mph N/A   Partly Cloudy
6:45 PM 84.2 °F 87.3 °F 68.0 °F 58% 30.03 in 10.0 mi NNW 8.1 mph 17.3 mph N/A   Partly Cloudy
7:45 PM 80.6 °F 83.2 °F 68.0 °F 65% 30.05 in 10.0 mi NNW 8.1 mph - N/A   Partly Cloudy
8:45 PM 77.0 °F - 69.8 °F 78% 30.06 in 10.0 mi Calm Calm - N/A   Partly Cloudy
8:55 PM 75.2 °F - 69.8 °F 83% 30.07 in 10.0 mi NW 4.6 mph - N/A   Partly Cloudy
9:15 PM 75.2 °F - 68.0 °F 78% 30.06 in 10.0 mi NNW 4.6 mph - N/A   Partly Cloudy
9:35 PM 75.2 °F - 68.0 °F 78% 30.07 in 10.0 mi NNW 4.6 mph - N/A   Clear
9:55 PM 73.4 °F - 68.0 °F 83% 30.08 in 10.0 mi North 4.6 mph - N/A   Clear
10:15 PM 73.4 °F - 68.0 °F 83% 30.08 in 10.0 mi Calm Calm - N/A   Clear
10:35 PM 73.4 °F - 69.8 °F 88% 30.08 in 10.0 mi North 3.5 mph - N/A   Clear
10:55 PM 73.4 °F - 68.0 °F 83% 30.09 in 10.0 mi Calm Calm - N/A   Partly Cloudy
11:15 PM 73.4 °F - 68.0 °F 83% 30.10 in 10.0 mi Calm Calm - N/A   Scattered Clouds
11:35 PM 71.6 °F - 68.0 °F 88% 30.10 in 10.0 mi Calm Calm - N/A   Partly Cloudy
11:55 PM 71.6 °F - 68.0 °F 88% 30.10 in 10.0 mi Calm Calm - N/A   Partly Cloudy